User: anonymous   Login
Location: Cella
(44.7333°N, 10.5667°E)
Time: 16:40:41
(UTC+00:00)
Language:

Cosmos 1777 Rocket - Orbit

View from above orbital plane
View from above orbital plane
View from above satellite
View from above satellite

Ground track
Ground track

The orbit data is extracted from the following two-line orbital elements,

1 16953U 86070B   21206.81546131  .00000084  00000-0  36974-4 0  9990
2 16953  74.0119  33.0357 0013145 257.1973 102.7711 14.37429157827286
Epoch (UTC): 25 July 2021 19:34:15
Eccentricity: 0.0013145
inclination: 74.0119°
perigee height: 757 km
apogee height: 776 km
right ascension of ascending node: 33.0357°
argument of perigee: 257.1973°
revolutions per day: 14.37429157
mean anomaly at epoch: 102.7711°
orbit number at epoch: 82728

The dashed part of the orbit path shows where the satellite is in the earth's shadow,  

DLR